[[{"header":{"parameterUnit":"m.s-1","parameterCategory":1,"la1":30.2991,"la2":30.254,"lo1":-89.0895,"lo2":-89.0444,"dy":0.0017,"dx":0.0017,"nx":28,"ny":28,"refTime":"2025-05-31T21:00:00:Z","depth":0,"parameterNumber":2,"parameterNumberName":"U-component_of_WINDS"},"data":[0,0,0,0,0,0,0,0,0,0,0,0,0,0,0,0,0,0,0,0,0,0,0,0,0,0,0,0,0,0,0,0,0,0,0,0,0,0,0,0,0,0,0,0,0,0,0,0,0,0,0,0,0,0,0,0,0,0,-2.2216,-2.2216,0,-2.2245,-2.2245,-2.2246,-2.2204,-2.2202,-2.2201,-2.22,-2.2228,-2.223,-2.2232,0,0,0,0,0,0,0,0,0,0,0,0,0,-2.2122,-2.2124,-2.2216,-2.2216,-2.2216,-2.2245,-2.2245,-2.2246,-2.2204,-2.2202,-2.2201,-2.2199,-2.2228,-2.223,-2.2233,0,0,0,0,0,0,0,0,0,0,0,0,0,-2.2158,-2.2124,-2.2216,-2.2199,-2.2198,-2.2245,-2.2245,-2.2246,-2.2205,-2.2202,-2.22,-2.2198,-2.2227,-2.223,-2.2233,-2.2297,0,0,-2.2243,-2.2244,0,0,0,0,0,0,0,0,-2.2156,-2.2161,-2.2201,-2.22,-2.2199,-2.2219,-2.2223,-2.2263,-2.2205,-2.2202,-2.22,-2.2197,-2.2227,-2.223,-2.224,-2.2298,-2.2299,-2.2243,-2.2245,-2.2246,-2.2247,0,0,0,0,0,0,0,-2.2153,-2.216,-2.2227,-2.2202,-2.2201,-2.219,-2.2192,-2.223,-2.2226,-2.2202,-2.2199,-2.2203,-2.2226,-2.2237,-2.224,-2.23,-2.2243,-2.2246,-2.2248,-2.2249,-2.2411,-2.2413,0,0,0,0,0,0,-2.2153,-2.2158,-2.2226,-2.2228,-2.2172,-2.2193,-2.2196,-2.2215,-2.2226,-2.2225,-2.2205,-2.2201,-2.2233,-2.2237,-2.2241,-2.2316,-2.2246,-2.2249,-2.2251,-2.2408,-2.2411,-2.2414,0,0,0,0,0,0,-2.2151,-2.216,-2.2225,-2.2192,-2.22,-2.2197,-2.2218,-2.2216,-2.2228,-2.2228,-2.2227,-2.2218,-2.2231,-2.2237,-2.2283,-2.2316,-2.2251,-2.2254,-2.2405,-2.2409,-2.2412,-2.2466,0,0,0,0,0,0,-2.2149,-2.2159,-2.2184,-2.2193,-2.2202,-2.2267,-2.222,-2.2218,-2.2233,-2.2229,-2.224,-2.2239,-2.223,-2.2279,-2.2286,-2.2319,-2.2256,-2.2402,-2.2407,-2.2411,-2.2461,-2.2471,-2.2479,0,0,0,0,0,-2.2146,-2.2198,-2.2185,-2.2194,-2.2233,-2.2269,-2.2274,-2.2263,-2.2236,-2.2261,-2.2261,-2.2239,-2.2312,-2.2284,-2.2292,-2.2327,-2.24,-2.2406,-2.2411,-2.2457,-2.2469,-2.2479,0,0,0,0,0,0,-2.2192,-2.2199,-2.2185,-2.2242,-2.2255,-2.2262,-2.2293,-2.2276,-2.2296,-2.2291,-2.2275,-2.2278,-2.2328,-2.2332,-2.2301,-2.2388,-2.2351,-2.2359,-2.2384,-2.2395,-2.2404,-2.2401,-2.2259,0,0,0,0,0,-2.2209,-2.2239,-2.2243,-2.2293,-2.23,-2.2295,-2.2311,-2.2301,-2.2314,-2.2319,-2.2323,-2.2336,-2.2361,-2.2379,-2.2402,-2.2462,-2.2463,-2.249,-2.2499,-2.2506,-2.2512,-2.2543,-2.2554,-2.2431,-2.2431,-2.2431,0,0,-2.2245,-2.2252,-2.2271,-2.2302,-2.2311,-2.2342,-2.23,-2.2334,-2.2356,-2.2324,-2.2368,-2.2371,-2.2385,-2.2438,-2.2461,-2.2443,-2.2547,-2.2513,-2.2519,-2.2521,-2.2549,-2.2561,-2.2571,-2.2435,-2.2434,-2.2434,0,0,-2.2324,-2.2333,-2.2375,-2.2385,-2.2399,-2.2396,-2.2406,-2.2415,-2.2416,-2.246,-2.2436,-2.2462,-2.2507,-2.2517,-2.2528,-2.2611,-2.2591,-2.2619,-2.2666,-2.2696,-2.2706,-2.2714,-2.2742,-2.2753,-2.2626,-2.2626,-2.2626,0,-2.2366,-2.2411,-2.2399,-2.2434,-2.2448,-2.2421,-2.2462,-2.2472,-2.2494,-2.2504,-2.2483,-2.2538,-2.2545,-2.26,-2.262,-2.263,-2.264,-2.2617,-2.2705,-2.2714,-2.2721,-2.2748,-2.2759,-2.2629,-2.2629,-2.2628,-2.2628,0,-2.2461,-2.2493,-2.2525,-2.2546,-2.2564,-2.2602,-2.2595,-2.2614,-2.2603,-2.2601,-2.2645,-2.2653,-2.2677,-2.269,-2.2679,-2.2742,-2.273,-2.2708,-2.267,-2.2737,-2.2761,-2.2772,-2.2634,-2.2632,-2.2632,-2.2631,0,0,-2.257,-2.2584,-2.2596,-2.2605,-2.2619,-2.2643,-2.268,-2.2704,-2.272,-2.2736,-2.2765,-2.2804,-2.2783,-2.2795,-2.2785,-2.2812,-2.2875,-2.2786,-2.2786,-2.2801,-2.2944,-2.296,-2.2972,-2.2863,-2.2865,-2.2866,-2.2943,0,-2.2648,-2.2712,-2.2702,-2.2764,-2.2792,-2.2767,-2.2798,-2.281,-2.281,-2.2833,-2.2832,-2.2859,-2.283,-2.2837,-2.2863,-2.2862,-2.2904,-2.2857,-2.2889,-2.289,-2.2885,-2.2986,-2.3003,-2.3075,-2.2952,-2.2954,-2.2955,0,-2.2748,-2.2767,-2.2832,-2.2841,-2.2852,-2.2881,-2.2902,-2.2925,-2.2937,-2.2935,-2.2949,-2.2934,-2.297,-2.2933,-2.2981,-2.2949,-2.2962,-2.2964,-2.2966,-2.2968,-2.2926,-2.2989,-2.3097,-2.3108,-2.2971,-2.297,-2.2968,0,-2.2819,-2.2862,-2.2906,-2.2914,-2.2926,-2.2946,-2.2952,-2.2962,-2.2977,-2.2995,-2.3004,-2.3027,-2.3038,-2.3055,-2.3046,-2.302,-2.3096,-2.3058,-2.3094,-2.3094,-2.311,-2.3109,-2.3221,-2.3121,-2.3121,-2.312,-2.312,0,-2.2907,-2.2947,-2.2938,-2.2965,-2.3008,-2.2996,-2.304,-2.3042,-2.3051,-2.3078,-2.3057,-2.3082,-2.3069,-2.3093,-2.3086,-2.3127,-2.3133,-2.3131,-2.3128,-2.3132,-2.3132,-2.3139,-2.3133,-2.3123,-2.3123,-2.3122,-2.3122,0,-2.2994,-2.2989,-2.3035,-2.3042,-2.3045,-2.3077,-2.3083,-2.3107,-2.3105,-2.3139,-2.3146,-2.3142,-2.3169,-2.3162,-2.3191,-2.3187,-2.3237,-2.3229,-2.3233,-2.3231,-2.3266,-2.3263,-2.3386,-2.3401,-2.3292,-2.3293,-2.3294,0,-2.305,-2.308,-2.309,-2.3106,-2.3114,-2.314,-2.3155,-2.3144,-2.3161,-2.3177,-2.3199,-2.3224,-2.3243,-2.3287,-2.3287,-2.3309,-2.33,-2.3342,-2.3303,-2.3306,-2.3299,-2.3297,-2.3299,-2.3349,-2.3351,-2.3352,-2.3352,0,-2.3148,-2.3144,-2.3167,-2.3189,-2.3208,-2.3224,-2.3239,-2.3253,-2.3243,-2.3262,-2.329,-2.3305,-2.3334,-2.3359,-2.3379,-2.3384,-2.3366,-2.3365,-2.3374,-2.3377,-2.3378,-2.3377,-2.3253,-2.3362,-2.3361,-2.336,-2.336,-2.3359,-2.322,-2.3246,-2.3257,-2.3282,-2.3292,-2.3306,-2.3329,-2.333,-2.3353,-2.3376,-2.3369,-2.3399,-2.341,-2.3435,-2.3443,-2.3466,-2.345,-2.3464,-2.3467,-2.347,-2.3474,-2.3375,-2.347,-2.347,-2.3469,-2.3469,-2.3469,0,-2.3317,-2.3323,-2.3347,-2.3367,-2.3387,-2.337,-2.3385,-2.3402,-2.343,-2.3442,-2.3461,-2.3492,-2.3516,-2.3518,-2.354,-2.3558,-2.355,-2.3564,-2.3562,-2.3563,-2.3488,-2.3477,-2.357,-2.357,-2.357,-2.357,-2.357,-2.357,-2.3369,-2.3411,-2.3408,-2.3454,-2.3459,-2.349,-2.3499,-2.3512,-2.3521,-2.3556,-2.3576,-2.3577,-2.3585,-2.3607,-2.3628,-2.3627,-2.3636,-2.3652,-2.3649,-2.3578,-2.3568,-2.3559,-2.3548,-2.3655,-2.3655,-2.3722,-2.3723,-2.3723]},{"header":{"parameterUnit":"m.s-1","parameterCategory":1,"la1":30.2991,"la2":30.254,"lo1":-89.0895,"lo2":-89.0444,"dy":0.0017,"dx":0.0017,"nx":28,"ny":28,"refTime":"2025-05-31T21:00:00:Z","depth":0,"parameterNumber":3,"parameterNumberName":"V-component_of_WINDS"},"data":[0,0,0,0,0,0,0,0,0,0,0,0,0,0,0,0,0,0,0,0,0,0,0,0,0,0,0,0,0,0,0,0,0,0,0,0,0,0,0,0,0,0,0,0,0,0,0,0,0,0,0,0,0,0,0,0,0,0,-0.6291,-0.6292,0,-0.6403,-0.6404,-0.6405,-0.649,-0.6491,-0.6491,-0.6492,-0.6608,-0.661,-0.6612,0,0,0,0,0,0,0,0,0,0,0,0,0,-0.6151,-0.6153,-0.6291,-0.6292,-0.6294,-0.6403,-0.6404,-0.6406,-0.649,-0.6491,-0.6492,-0.6492,-0.6607,-0.661,-0.6613,0,0,0,0,0,0,0,0,0,0,0,0,0,-0.6232,-0.6154,-0.6291,-0.6349,-0.6355,-0.6402,-0.6404,-0.6406,-0.649,-0.6491,-0.6492,-0.6493,-0.6606,-0.661,-0.6613,-0.6612,0,0,-0.6624,-0.6625,0,0,0,0,0,0,0,0,-0.6227,-0.6237,-0.6339,-0.6345,-0.6352,-0.6434,-0.6398,-0.6475,-0.6489,-0.6438,-0.6492,-0.6493,-0.6549,-0.6557,-0.6576,-0.6617,-0.6622,-0.6624,-0.6626,-0.6628,-0.6629,0,0,0,0,0,0,0,-0.6222,-0.6233,-0.6335,-0.634,-0.6348,-0.637,-0.6382,-0.6413,-0.6486,-0.6443,-0.6449,-0.6461,-0.6553,-0.6572,-0.6579,-0.6624,-0.6624,-0.6627,-0.6629,-0.6631,-0.6671,-0.667,0,0,0,0,0,0,-0.6207,-0.6228,-0.6332,-0.6339,-0.6291,-0.6371,-0.6385,-0.6406,-0.6486,-0.6499,-0.646,-0.6465,-0.6566,-0.6575,-0.6584,-0.6588,-0.6628,-0.6631,-0.6633,-0.6672,-0.6671,-0.667,0,0,0,0,0,0,-0.6204,-0.6215,-0.6327,-0.6285,-0.6301,-0.6372,-0.6395,-0.6408,-0.6427,-0.6499,-0.6513,-0.6467,-0.6567,-0.6579,-0.6604,-0.6593,-0.6633,-0.6636,-0.6673,-0.6672,-0.667,-0.6596,0,0,0,0,0,0,-0.6199,-0.6214,-0.6214,-0.6284,-0.6303,-0.6345,-0.6394,-0.6409,-0.6433,-0.644,-0.6508,-0.6521,-0.6569,-0.6599,-0.6608,-0.6599,-0.6639,-0.6675,-0.6673,-0.6671,-0.6599,-0.6592,-0.6585,0,0,0,0,0,-0.6194,-0.6188,-0.6213,-0.6225,-0.6304,-0.6344,-0.6355,-0.641,-0.6432,-0.6433,-0.6479,-0.6519,-0.6593,-0.6601,-0.6612,-0.6603,-0.6676,-0.6673,-0.6671,-0.6603,-0.6593,-0.6585,0,0,0,0,0,0,-0.6115,-0.6198,-0.6227,-0.6244,-0.6286,-0.6359,-0.6361,-0.6398,-0.6436,-0.6441,-0.6508,-0.6522,-0.6541,-0.6575,-0.6582,-0.6607,-0.6639,-0.6639,-0.6584,-0.6575,-0.6568,-0.6559,-0.6642,0,0,0,0,0,-0.6099,-0.6124,-0.6197,-0.6205,-0.6224,-0.6289,-0.6309,-0.6347,-0.6394,-0.6412,-0.6461,-0.6505,-0.6538,-0.6559,-0.6593,-0.6605,-0.6621,-0.6605,-0.6598,-0.6591,-0.659,-0.6599,-0.6592,-0.6662,-0.6662,-0.6662,0,0,-0.6067,-0.6116,-0.6128,-0.619,-0.6227,-0.6252,-0.6303,-0.6328,-0.6347,-0.6417,-0.6444,-0.648,-0.6534,-0.6553,-0.6563,-0.6582,-0.6575,-0.6588,-0.6583,-0.6585,-0.6596,-0.6589,-0.6583,-0.666,-0.6661,-0.6661,0,0,-0.6022,-0.6061,-0.6072,-0.6109,-0.6165,-0.6208,-0.621,-0.6277,-0.6304,-0.6333,-0.6385,-0.6409,-0.6465,-0.6502,-0.6527,-0.6496,-0.6534,-0.6506,-0.6468,-0.6476,-0.647,-0.6466,-0.6454,-0.645,-0.6505,-0.6504,-0.6504,0,-0.5975,-0.6015,-0.6073,-0.6095,-0.6121,-0.6184,-0.6196,-0.6229,-0.6293,-0.631,-0.6329,-0.6401,-0.6442,-0.647,-0.6462,-0.6481,-0.6486,-0.6498,-0.6466,-0.6462,-0.6459,-0.6449,-0.6444,-0.65,-0.6501,-0.6501,-0.6502,0,-0.5954,-0.5981,-0.5983,-0.6044,-0.607,-0.6086,-0.6148,-0.6168,-0.6204,-0.6245,-0.6273,-0.6325,-0.6371,-0.6381,-0.6417,-0.6414,-0.6423,-0.6454,-0.6488,-0.6447,-0.6439,-0.6436,-0.6495,-0.6496,-0.6497,-0.6498,0,0,-0.5861,-0.5954,-0.5954,-0.5982,-0.6049,-0.6071,-0.6091,-0.6136,-0.6151,-0.6194,-0.6212,-0.6258,-0.6287,-0.6316,-0.6357,-0.6363,-0.6335,-0.6393,-0.6396,-0.638,-0.6335,-0.6312,-0.6306,-0.6361,-0.6361,-0.6361,-0.6331,0,-0.5826,-0.5864,-0.5918,-0.5938,-0.5964,-0.6025,-0.6042,-0.6085,-0.6124,-0.6152,-0.6196,-0.6227,-0.6263,-0.6281,-0.629,-0.6337,-0.6327,-0.634,-0.6379,-0.638,-0.6363,-0.6302,-0.6277,-0.6246,-0.6328,-0.6327,-0.6327,0,-0.579,-0.5829,-0.5851,-0.5916,-0.5929,-0.5943,-0.5989,-0.6015,-0.6065,-0.6093,-0.6126,-0.617,-0.6194,-0.6225,-0.626,-0.6267,-0.6287,-0.6312,-0.6312,-0.6317,-0.635,-0.6305,-0.6238,-0.6233,-0.6323,-0.6323,-0.6323,0,-0.5719,-0.5777,-0.5798,-0.5821,-0.5897,-0.5906,-0.5938,-0.599,-0.6013,-0.6053,-0.607,-0.6112,-0.6135,-0.6167,-0.6222,-0.624,-0.6251,-0.6286,-0.6275,-0.6273,-0.6274,-0.6273,-0.6208,-0.6287,-0.6287,-0.6287,-0.6287,0,-0.5674,-0.5685,-0.5768,-0.578,-0.5795,-0.5857,-0.5871,-0.5909,-0.5954,-0.5976,-0.6032,-0.6051,-0.6122,-0.615,-0.6193,-0.6215,-0.6225,-0.6249,-0.626,-0.6243,-0.624,-0.6257,-0.626,-0.6286,-0.6286,-0.6286,-0.6287,0,-0.5597,-0.5653,-0.568,-0.575,-0.5768,-0.5775,-0.5836,-0.5851,-0.5894,-0.592,-0.593,-0.5997,-0.6033,-0.6091,-0.6144,-0.6173,-0.6187,-0.6206,-0.6169,-0.6176,-0.6161,-0.6161,-0.6104,-0.61,-0.6181,-0.618,-0.6179,0,-0.5564,-0.5574,-0.5645,-0.5663,-0.5694,-0.5723,-0.5747,-0.5809,-0.5832,-0.5891,-0.5899,-0.5939,-0.5974,-0.6028,-0.6081,-0.6122,-0.6143,-0.612,-0.6149,-0.6132,-0.6142,-0.614,-0.6142,-0.6112,-0.6111,-0.611,-0.611,0,-0.5499,-0.5526,-0.5559,-0.5602,-0.5629,-0.5666,-0.5705,-0.5717,-0.5788,-0.5811,-0.5848,-0.5875,-0.5929,-0.5968,-0.6017,-0.6051,-0.6092,-0.61,-0.6099,-0.6082,-0.606,-0.6072,-0.615,-0.6101,-0.6102,-0.6102,-0.6103,-0.6103,-0.5443,-0.5455,-0.5507,-0.5542,-0.5578,-0.5613,-0.5631,-0.5676,-0.5708,-0.5756,-0.5791,-0.5825,-0.5876,-0.5946,-0.5977,-0.6006,-0.6024,-0.6023,-0.6023,-0.6021,-0.6015,-0.6056,-0.6015,-0.6015,-0.6015,-0.6016,-0.6016,0,-0.5381,-0.5418,-0.5449,-0.5502,-0.553,-0.5566,-0.5612,-0.5632,-0.5662,-0.5706,-0.5739,-0.5782,-0.582,-0.5877,-0.5919,-0.5931,-0.5951,-0.594,-0.594,-0.5947,-0.5996,-0.5992,-0.5923,-0.5923,-0.5923,-0.5923,-0.5923,-0.5923,-0.5352,-0.5374,-0.5407,-0.5448,-0.5485,-0.5519,-0.5542,-0.5575,-0.561,-0.5655,-0.5687,-0.5724,-0.5773,-0.582,-0.5857,-0.5872,-0.5885,-0.5868,-0.589,-0.5935,-0.5943,-0.5951,-0.5948,-0.5871,-0.5871,-0.5838,-0.5838,-0.5837]}]]